| time (UTC) | temp F | wind direction | speed MPH | gust MPH | rain 1hr in | rain 24hr in | rain mn in | humidity % | barometer mb |
| 20260904135423 | 80 | 303 | 9.0 | 13.0 | 0.00 | 0.01 | 0.01 | 81 | 1015.1 |
| 20260904134920 | 80 | 72 | 2.0 | 3.0 | 0.00 | 0.01 | 0.01 | 81 | 1015.1 |
| 20260904134419 | 79 | 304 | 4.0 | 8.0 | 0.00 | 0.01 | 0.01 | 83 | 1015.1 |
| 20260904133914 | 78 | 224 | 4.0 | 6.0 | 0.00 | 0.01 | 0.01 | 84 | 1015.1 |
| 20260904133409 | 79 | 287 | 5.0 | 6.0 | 0.00 | 0.01 | 0.01 | 83 | 1015.4 |
| 20260904132904 | 78 | 304 | 5.0 | 8.0 | 0.00 | 0.01 | 0.01 | 84 | 1015.3 |
| 20260904132359 | 78 | 332 | 2.0 | 3.0 | 0.00 | 0.01 | 0.01 | 84 | 1015.3 |
| 20260904131858 | 78 | 298 | 3.0 | 3.0 | 0.00 | 0.01 | 0.01 | 84 | 1015.3 |
| 20260904131354 | 78 | 339 | 3.0 | 3.0 | 0.00 | 0.01 | 0.01 | 85 | 1015.3 |
| 20260904130849 | 78 | 350 | 3.0 | 5.0 | 0.00 | 0.01 | 0.01 | 85 | 1015.2 |
| 20260904130348 | 78 | 49 | 2.0 | 3.0 | 0.00 | 0.01 | 0.01 | 86 | 1015.5 |
| 20260904125843 | 77 | 328 | 3.0 | 5.0 | 0.00 | 0.01 | 0.01 | 86 | 1015.4 |
| 20260904125340 | 77 | 210 | 2.0 | 2.0 | 0.00 | 0.01 | 0.01 | 88 | 1015.4 |
| 20260904124839 | 77 | 308 | 4.0 | 6.0 | 0.00 | 0.01 | 0.01 | 89 | 1015.0 |
| 20260904124335 | 76 | 304 | 2.0 | 2.0 | 0.00 | 0.01 | 0.01 | 90 | 1015.2 |
| 20260904123830 | 76 | 137 | 2.0 | 2.0 | 0.00 | 0.01 | 0.01 | 91 | 1015.6 |
| 20260904123325 | 75 | 267 | 2.0 | 2.0 | 0.00 | 0.01 | 0.01 | 91 | 1015.2 |
| 20260904122820 | 75 | 139 | 0.0 | 1.0 | 0.00 | 0.01 | 0.01 | 91 | 1015.5 |
| 20260904122315 | 75 | 226 | 3.0 | 3.0 | 0.00 | 0.01 | 0.01 | 91 | 1015.6 |
| 20260904121809 | 75 | 188 | 1.0 | 2.0 | 0.00 | 0.01 | 0.01 | 92 | 1015.5 |
| 20260904121305 | 75 | 303 | 2.0 | 3.0 | 0.00 | 0.01 | 0.01 | 93 | 1015.4 |
| 20260904120803 | 74 | 259 | 3.0 | 3.0 | 0.00 | 0.01 | 0.01 | 93 | 1015.5 |
| 20260904120258 | 74 | 173 | 3.0 | 5.0 | 0.00 | 0.01 | 0.01 | 93 | 1015.4 |
| 20260904115753 | 74 | 195 | 2.0 | 2.0 | 0.00 | 0.01 | 0.01 | 94 | 1015.2 |
| 20260904115248 | 74 | 177 | 1.0 | 2.0 | 0.00 | 0.01 | 0.01 | 94 | 1015.4 |
| 20260904114743 | 74 | 219 | 2.0 | 2.0 | 0.00 | 0.01 | 0.01 | 94 | 1015.3 |
| 20260904114242 | 73 | 235 | 3.0 | 3.0 | 0.00 | 0.01 | 0.01 | 94 | 1015.4 |
| 20260904113737 | 73 | 202 | 2.0 | 2.0 | 0.00 | 0.01 | 0.01 | 95 | 1015.1 |
| 20260904113236 | 73 | 206 | 1.0 | 2.0 | 0.00 | 0.01 | 0.01 | 95 | 1015.2 |
| 20260904112732 | 73 | 304 | 2.0 | 3.0 | 0.00 | 0.01 | 0.01 | 96 | 1015.4 |
| 20260904112227 | 72 | 250 | 0.0 | 1.0 | 0.00 | 0.01 | 0.01 | 97 | 1015.0 |
| 20260904111723 | 72 | 227 | 1.0 | 1.0 | 0.00 | 0.01 | 0.01 | 97 | 1015.0 |
| 20260904111218 | 72 | 228 | 1.0 | 1.0 | 0.00 | 0.01 | 0.01 | 98 | 1015.0 |
| 20260904110714 | 72 | 222 | 1.0 | 1.0 | 0.00 | 0.01 | 0.01 | 98 | 1014.8 |
| 20260904110213 | 72 | 238 | 3.0 | 3.0 | 0.00 | 0.01 | 0.01 | 98 | 1014.9 |
| 20260904105708 | 72 | 231 | 2.0 | 2.0 | 0.00 | 0.01 | 0.01 | 98 | 1014.6 |
| 20260904105202 | 72 | 242 | 2.0 | 2.0 | 0.00 | 0.01 | 0.01 | 98 | 1014.4 |
| 20260904104652 | 72 | 228 | 2.0 | 2.0 | 0.00 | 0.01 | 0.01 | 98 | 1014.4 |
| 20260904104147 | 72 | 208 | 1.0 | 2.0 | 0.00 | 0.01 | 0.01 | 98 | 1014.2 |
| 20260904103644 | 72 | 225 | 2.0 | 2.0 | 0.00 | 0.01 | 0.01 | 99 | 1014.2 |
| 20260904103139 | 72 | 212 | 0.0 | 1.0 | 0.00 | 0.01 | 0.01 | 98 | 1014.1 |
| 20260904102636 | 72 | 221 | 2.0 | 2.0 | 0.00 | 0.01 | 0.01 | 98 | 1014.1 |
| 20260904102130 | 72 | 218 | 3.0 | 3.0 | 0.00 | 0.01 | 0.01 | 98 | 1014.1 |
| 20260904101627 | 72 | 241 | 2.0 | 2.0 | 0.00 | 0.01 | 0.01 | 98 | 1014.4 |
| 20260904101122 | 72 | 262 | 3.0 | 5.0 | 0.00 | 0.01 | 0.01 | 97 | 1013.9 |
| 20260904100618 | 73 | 239 | 1.0 | 2.0 | 0.00 | 0.01 | 0.01 | 97 | 1014.0 |
| 20260904100113 | 73 | 245 | 3.0 | 3.0 | 0.00 | 0.01 | 0.01 | 97 | 1013.9 |
| 20260904095608 | 73 | 247 | 2.0 | 2.0 | 0.00 | 0.01 | 0.01 | 97 | 1014.3 |
| 20260904095103 | 73 | 245 | 3.0 | 3.0 | 0.00 | 0.01 | 0.01 | 97 | 1014.4 |
| 20260904094602 | 73 | 215 | 1.0 | 2.0 | 0.00 | 0.01 | 0.01 | 96 | 1014.3 |
| 20260904094057 | 73 | 255 | 1.0 | 1.0 | 0.00 | 0.01 | 0.01 | 96 | 1014.4 |
| 20260904093554 | 73 | 219 | 0.0 | 0.0 | 0.00 | 0.01 | 0.01 | 96 | 1014.4 |
| 20260904093049 | 73 | 317 | 3.0 | 3.0 | 0.00 | 0.01 | 0.01 | 96 | 1014.2 |
| 20260904092544 | 73 | 238 | 4.0 | 5.0 | 0.00 | 0.01 | 0.01 | 96 | 1014.3 |
| 20260904092041 | 73 | 237 | 4.0 | 5.0 | 0.00 | 0.01 | 0.01 | 96 | 1014.2 |
| 20260904091537 | 73 | 233 | 2.0 | 3.0 | 0.00 | 0.01 | 0.01 | 96 | 1014.5 |
| 20260904091036 | 74 | 198 | 1.0 | 1.0 | 0.00 | 0.01 | 0.01 | 97 | 1014.6 |
| 20260904090532 | 74 | 238 | 6.0 | 8.0 | 0.00 | 0.01 | 0.01 | 97 | 1014.5 |
| 20260904090028 | 74 | 259 | 2.0 | 3.0 | 0.00 | 0.01 | 0.01 | 97 | 1014.2 |
| 20260904085522 | 74 | 218 | 3.0 | 3.0 | 0.00 | 0.01 | 0.01 | 97 | 1014.1 |
| 20260904085022 | 74 | 249 | 4.0 | 6.0 | 0.00 | 0.01 | 0.01 | 98 | 1014.1 |
| 20260904084518 | 75 | 265 | 3.0 | 3.0 | 0.00 | 0.01 | 0.01 | 97 | 1013.9 |
| 20260904084014 | 75 | 211 | 3.0 | 5.0 | 0.00 | 0.01 | 0.01 | 97 | 1014.1 |
| 20260904083510 | 75 | 262 | 3.0 | 5.0 | 0.00 | 0.01 | 0.01 | 97 | 1014.2 |
| 20260904083005 | 75 | 260 | 3.0 | 3.0 | 0.00 | 0.01 | 0.01 | 98 | 1014.0 |
| 20260904082500 | 75 | 226 | 3.0 | 5.0 | 0.00 | 0.01 | 0.01 | 98 | 1014.3 |
| 20260904081955 | 75 | 219 | 1.0 | 1.0 | 0.00 | 0.01 | 0.01 | 98 | 1014.3 |
| 20260904081450 | 75 | 246 | 2.0 | 2.0 | 0.00 | 0.01 | 0.01 | 99 | 1014.2 |
| 20260904080946 | 75 | 262 | 2.0 | 2.0 | 0.00 | 0.01 | 0.01 | 99 | 1014.3 |
| 20260904080441 | 75 | 238 | 2.0 | 2.0 | 0.00 | 0.01 | 0.01 | 99 | 1014.3 |
| 20260904075931 | 75 | 267 | 3.0 | 3.0 | 0.00 | 0.01 | 0.01 | 99 | 1014.3 |
| 20260904075427 | 75 | 246 | 3.0 | 5.0 | 0.00 | 0.01 | 0.01 | 99 | 1014.4 |
| 20260904074926 | 75 | 249 | 1.0 | 1.0 | 0.00 | 0.01 | 0.01 | 99 | 1014.1 |
| 20260904074421 | 75 | 228 | 2.0 | 2.0 | 0.00 | 0.01 | 0.01 | 99 | 1014.1 |
| 20260904073916 | 75 | 292 | 2.0 | 2.0 | 0.00 | 0.01 | 0.01 | 99 | 1014.3 |
| 20260904073412 | 75 | 232 | 2.0 | 2.0 | 0.00 | 0.01 | 0.01 | 99 | 1014.2 |
| 20260904072908 | 75 | 238 | 2.0 | 2.0 | 0.00 | 0.01 | 0.01 | 99 | 1014.1 |
| 20260904072403 | 74 | 222 | 0.0 | 0.0 | 0.00 | 0.01 | 0.01 | 99 | 1014.0 |
| 20260904071858 | 74 | 219 | 0.0 | 0.0 | 0.00 | 0.01 | 0.01 | 99 | 1013.9 |
| 20260904071353 | 74 | 212 | 0.0 | 0.0 | 0.00 | 0.01 | 0.01 | 99 | 1014.1 |
| 20260904070848 | 74 | 225 | 0.0 | 0.0 | 0.00 | 0.01 | 0.01 | 99 | 1013.8 |
| 20260904070346 | 74 | 220 | 0.0 | 0.0 | 0.00 | 0.01 | 0.01 | 99 | 1013.7 |
| 20260904065841 | 74 | 193 | 0.0 | 0.0 | 0.00 | 0.01 | 0.01 | 99 | 1013.4 |
| 20260904065338 | 74 | 192 | 0.0 | 0.0 | 0.00 | 0.01 | 0.01 | 99 | 1013.4 |
| 20260904064832 | 74 | 198 | 0.0 | 0.0 | 0.00 | 0.01 | 0.01 | 99 | 1013.4 |
| 20260904064328 | 74 | 198 | 0.0 | 0.0 | 0.00 | 0.01 | 0.01 | 99 | 1013.3 |
| 20260904063819 | 74 | 196 | 0.0 | 0.0 | 0.00 | 0.01 | 0.01 | 99 | 1013.3 |
| 20260904063315 | 74 | 196 | 0.0 | 0.0 | 0.00 | 0.01 | 0.01 | 99 | 1013.4 |
| 20260904062810 | 74 | 196 | 0.0 | 0.0 | 0.00 | 0.01 | 0.01 | 99 | 1013.3 |
| 20260904062306 | 74 | 198 | 0.0 | 0.0 | 0.00 | 0.01 | 0.01 | 99 | 1013.0 |
| 20260904061801 | 75 | 197 | 0.0 | 0.0 | 0.00 | 0.01 | 0.01 | 99 | 1013.1 |
| 20260904061257 | 75 | 198 | 0.0 | 0.0 | 0.00 | 0.01 | 0.01 | 99 | 1013.1 |
| 20260904060753 | 75 | 198 | 0.0 | 0.0 | 0.00 | 0.01 | 0.01 | 99 | 1013.2 |
| 20260904060249 | 75 | 199 | 0.0 | 0.0 | 0.00 | 0.01 | 0.01 | 99 | 1013.4 |
| 20260904055745 | 75 | 199 | 0.0 | 0.0 | 0.00 | 0.01 | 0.01 | 99 | 1013.8 |
| 20260904055244 | 75 | 199 | 0.0 | 0.0 | 0.00 | 0.01 | 0.01 | 99 | 1014.0 |
| 20260904054740 | 75 | 187 | 0.0 | 0.0 | 0.00 | 0.01 | 0.01 | 99 | 1013.9 |
| 20260904054236 | 76 | 193 | 0.0 | 0.0 | 0.00 | 0.01 | 0.01 | 99 | 1014.1 |
| 20260904053731 | 76 | 170 | 0.0 | 0.0 | 0.00 | 0.01 | 0.01 | 98 | 1014.4 |
| 20260904053231 | 76 | 186 | 0.0 | 0.0 | 0.00 | 0.01 | 0.01 | 97 | 1014.5 |
| 20260904052727 | 76 | 205 | 0.0 | 0.0 | 0.00 | 0.01 | 0.01 | 97 | 1014.4 |
| 20260904052223 | 76 | 208 | 0.0 | 0.0 | 0.00 | 0.01 | 0.01 | 96 | 1014.5 |
| 20260904051720 | 76 | 208 | 0.0 | 0.0 | 0.00 | 0.01 | 0.01 | 97 | 1014.4 |
| 20260904051215 | 76 | 217 | 0.0 | 0.0 | 0.00 | 0.01 | 0.01 | 97 | 1014.4 |
| 20260904050714 | 77 | 180 | 0.0 | 0.0 | 0.00 | 0.01 | 0.01 | 97 | 1014.1 |
| 20260904050211 | 77 | 215 | 0.0 | 0.0 | 0.00 | 0.01 | 0.01 | 96 | 1014.1 |
| 20260904045711 | 77 | 215 | 0.0 | 0.0 | 0.00 | 0.01 | 0.01 | 96 | 1014.2 |
| 20260904045206 | 77 | 227 | 1.0 | 1.0 | 0.00 | 0.01 | 0.01 | 96 | 1013.9 |
| 20260904044701 | 78 | 264 | 1.0 | 2.0 | 0.00 | 0.01 | 0.01 | 95 | 1014.0 |
| 20260904044157 | 77 | 246 | 2.0 | 2.0 | 0.00 | 0.01 | 0.01 | 96 | 1013.6 |
| 20260904043654 | 77 | 232 | 2.0 | 2.0 | 0.07 | 0.01 | 0.01 | 97 | 1013.7 |
| 20260904043149 | 76 | 210 | 3.0 | 3.0 | 0.07 | 0.01 | 0.01 | 97 | 1013.6 |
| 20260904042645 | 76 | 241 | 0.0 | 0.0 | 0.00 | 0.00 | 0.00 | 98 | 1014.0 |
| 20260904042140 | 76 | 296 | 2.0 | 2.0 | 0.00 | 0.00 | 0.00 | 98 | 1014.2 |
| 20260904041635 | 76 | 209 | 0.0 | 0.0 | 0.00 | 0.00 | 0.00 | 97 | 1014.3 |
| 20260904041132 | 76 | 342 | 0.0 | 1.0 | 0.00 | 0.00 | 0.00 | 97 | 1014.6 |
| 20260904040627 | 77 | 222 | 1.0 | 1.0 | 0.00 | 0.00 | 0.00 | 96 | 1014.4 |
| 20260904040123 | 77 | 201 | 1.0 | 1.0 | 0.00 | 0.00 | 0.00 | 95 | 1014.6 |
| 20260904035619 | 78 | 222 | 2.0 | 3.0 | 0.00 | 1.04 | 1.04 | 92 | 1014.8 |
| 20260904035118 | 78 | 225 | 1.0 | 1.0 | 0.00 | 1.04 | 1.04 | 91 | 1014.6 |
| 20260904034613 | 78 | 240 | 1.0 | 1.0 | 0.00 | 1.04 | 1.04 | 91 | 1014.8 |
| 20260904034108 | 78 | 250 | 0.0 | 0.0 | 0.00 | 1.04 | 1.04 | 90 | 1014.4 |
| 20260904033604 | 78 | 263 | 1.0 | 1.0 | 0.00 | 1.04 | 1.04 | 90 | 1014.6 |
| 20260904033101 | 78 | 214 | 0.0 | 1.0 | 0.00 | 1.04 | 1.04 | 90 | 1014.7 |
| 20260904032556 | 78 | 227 | 0.0 | 0.0 | 0.00 | 1.04 | 1.04 | 90 | 1014.8 |
| 20260904032055 | 78 | 255 | 1.0 | 2.0 | 0.00 | 1.04 | 1.04 | 90 | 1014.9 |
| 20260904031555 | 78 | 279 | 1.0 | 1.0 | 0.00 | 1.04 | 1.04 | 90 | 1015.1 |
| 20260904031051 | 78 | 222 | 2.0 | 2.0 | 0.00 | 1.04 | 1.04 | 91 | 1015.0 |
| 20260904030547 | 78 | 266 | 1.0 | 2.0 | 0.00 | 1.04 | 1.04 | 91 | 1015.2 |
| 20260904030042 | 78 | 235 | 3.0 | 3.0 | 0.00 | 1.04 | 1.04 | 91 | 1015.3 |
| 20260904025537 | 78 | 218 | 2.0 | 2.0 | 0.00 | 1.04 | 1.04 | 91 | 1015.2 |
| 20260904025032 | 77 | 249 | 3.0 | 5.0 | 0.00 | 1.04 | 1.04 | 91 | 1015.1 |
| 20260904024527 | 77 | 230 | 1.0 | 2.0 | 0.00 | 1.04 | 1.04 | 92 | 1015.0 |
| 20260904024023 | 77 | 287 | 1.0 | 2.0 | 0.00 | 1.04 | 1.04 | 92 | 1014.7 |
| 20260904023519 | 77 | 229 | 1.0 | 1.0 | 0.00 | 1.04 | 1.04 | 92 | 1015.0 |
| 20260904023014 | 77 | 233 | 1.0 | 1.0 | 0.00 | 1.04 | 1.04 | 92 | 1015.0 |
| 20260904022509 | 77 | 229 | 1.0 | 1.0 | 0.00 | 1.04 | 1.04 | 92 | 1014.6 |
| 20260904022006 | 77 | 201 | 0.0 | 0.0 | 0.00 | 1.04 | 1.04 | 93 | 1014.7 |
| 20260904021502 | 77 | 201 | 0.0 | 0.0 | 0.00 | 1.04 | 1.04 | 93 | 1014.7 |
| 20260904020956 | 77 | 200 | 0.0 | 0.0 | 0.00 | 1.04 | 1.04 | 93 | 1014.9 |
| 20260904020452 | 77 | 200 | 0.0 | 0.0 | 0.00 | 1.04 | 1.04 | 92 | 1015.0 |
| 20260904015950 | 77 | 200 | 0.0 | 0.0 | 0.00 | 1.04 | 1.04 | 92 | 1015.5 |
| 20260904015445 | 78 | 200 | 0.0 | 0.0 | 0.00 | 1.04 | 1.04 | 91 | 1015.2 |
| 20260904014944 | 78 | 204 | 0.0 | 1.0 | 0.00 | 1.04 | 1.04 | 90 | 1015.3 |
| 20260904014439 | 79 | 252 | 0.0 | 0.0 | 0.00 | 1.04 | 1.04 | 89 | 1015.3 |
| 20260904013935 | 79 | 223 | 1.0 | 1.0 | 0.00 | 1.04 | 1.04 | 89 | 1015.1 |
| 20260904013430 | 79 | 224 | 1.0 | 1.0 | 0.00 | 1.04 | 1.04 | 88 | 1015.1 |
| 20260904012927 | 79 | 224 | 1.0 | 2.0 | 0.00 | 1.04 | 1.04 | 89 | 1015.1 |
| 20260904012420 | 79 | 256 | 0.0 | 0.0 | 0.00 | 1.04 | 1.04 | 89 | 1015.2 |
| 20260904011915 | 79 | 239 | 1.0 | 1.0 | 0.00 | 1.04 | 1.04 | 89 | 1015.4 |
| 20260904011410 | 79 | 242 | 1.0 | 2.0 | 0.00 | 1.04 | 1.04 | 88 | 1015.2 |
| 20260904010905 | 80 | 227 | 0.0 | 1.0 | 0.00 | 1.04 | 1.04 | 88 | 1015.3 |
| 20260904010402 | 79 | 258 | 2.0 | 2.0 | 0.00 | 1.04 | 1.04 | 88 | 1015.7 |
| 20260904005902 | 79 | 261 | 0.0 | 1.0 | 0.00 | 1.04 | 1.04 | 89 | 1015.6 |
| 20260904005352 | 79 | 240 | 1.0 | 1.0 | 0.00 | 1.04 | 1.04 | 89 | 1015.6 |
| 20260904004847 | 80 | 224 | 2.0 | 2.0 | 0.00 | 1.04 | 1.04 | 88 | 1015.6 |
| 20260904004343 | 80 | 245 | 1.0 | 1.0 | 0.00 | 1.04 | 1.04 | 88 | 1015.1 |
| 20260904003843 | 80 | 237 | 1.0 | 2.0 | 0.00 | 1.04 | 1.04 | 87 | 1015.5 |
| 20260904003339 | 80 | 234 | 0.0 | 1.0 | 0.00 | 1.04 | 1.04 | 87 | 1015.6 |
| 20260904002834 | 80 | 242 | 0.0 | 0.0 | 0.00 | 1.04 | 1.04 | 87 | 1015.2 |
| 20260904002331 | 80 | 217 | 2.0 | 2.0 | 0.00 | 1.04 | 1.04 | 87 | 1015.4 |
| 20260904001829 | 80 | 225 | 1.0 | 1.0 | 0.00 | 1.04 | 1.04 | 86 | 1015.2 |
| 20260904001325 | 80 | 258 | 2.0 | 3.0 | 0.00 | 1.04 | 1.04 | 86 | 1015.0 |
| 20260904000820 | 80 | 230 | 1.0 | 2.0 | 0.00 | 1.04 | 1.04 | 86 | 1015.0 |
| 20260904000319 | 80 | 219 | 1.0 | 1.0 | 0.00 | 1.04 | 1.04 | 86 | 1014.8 |
| 20260903235814 | 80 | 219 | 1.0 | 1.0 | 0.00 | 1.04 | 1.04 | 87 | 1014.8 |
| 20260903235311 | 80 | 220 | 1.0 | 1.0 | 0.00 | 1.04 | 1.04 | 88 | 1015.1 |
| 20260903234810 | 79 | 216 | 0.0 | 0.0 | 0.00 | 1.04 | 1.04 | 87 | 1014.8 |
| 20260903234306 | 80 | 214 | 0.0 | 0.0 | 0.00 | 1.04 | 1.04 | 87 | 1014.6 |
| 20260903233802 | 81 | 214 | 0.0 | 0.0 | 0.00 | 1.04 | 1.04 | 85 | 1014.8 |
| 20260903233258 | 81 | 215 | 0.0 | 0.0 | 0.00 | 1.04 | 1.04 | 83 | 1014.9 |
| 20260903232756 | 82 | 220 | 0.0 | 1.0 | 0.00 | 1.04 | 1.04 | 82 | 1014.9 |
| 20260903232253 | 82 | 207 | 0.0 | 1.0 | 0.00 | 1.04 | 1.04 | 82 | 1015.0 |
| 20260903231751 | 82 | 289 | 2.0 | 2.0 | 0.00 | 1.04 | 1.04 | 81 | 1015.2 |
| 20260903231246 | 82 | 237 | 3.0 | 3.0 | 0.00 | 1.04 | 1.04 | 81 | 1014.9 |
| 20260903230742 | 82 | 238 | 1.0 | 1.0 | 0.00 | 1.04 | 1.04 | 81 | 1015.2 |
| 20260903230237 | 83 | 242 | 3.0 | 3.0 | 0.00 | 1.04 | 1.04 | 80 | 1015.0 |
| 20260903225733 | 83 | 261 | 3.0 | 3.0 | 0.00 | 1.04 | 1.04 | 80 | 1015.0 |
| 20260903225229 | 83 | 221 | 1.0 | 2.0 | 0.00 | 1.04 | 1.04 | 79 | 1014.5 |
| 20260903224726 | 83 | 232 | 2.0 | 2.0 | 0.00 | 1.04 | 1.04 | 79 | 1014.6 |
| 20260903224221 | 84 | 223 | 2.0 | 2.0 | 0.00 | 1.04 | 1.04 | 79 | 1014.5 |
| 20260903223716 | 84 | 244 | 2.0 | 2.0 | 0.00 | 1.04 | 1.04 | 78 | 1014.7 |
| 20260903223215 | 85 | 302 | 2.0 | 2.0 | 0.00 | 1.04 | 1.04 | 78 | 1014.6 |
| 20260903222709 | 85 | 223 | 3.0 | 5.0 | 0.00 | 1.04 | 1.04 | 76 | 1014.5 |
| 20260903222209 | 86 | 238 | 3.0 | 3.0 | 0.00 | 1.04 | 1.04 | 76 | 1014.5 |
| 20260903221703 | 86 | 256 | 1.0 | 2.0 | 0.00 | 1.04 | 1.04 | 75 | 1014.8 |
| 20260903221202 | 86 | 266 | 4.0 | 6.0 | 0.00 | 1.04 | 1.04 | 75 | 1014.6 |
| 20260903220700 | 86 | 306 | 2.0 | 3.0 | 0.00 | 1.04 | 1.04 | 75 | 1014.4 |
| 20260903220155 | 86 | 248 | 2.0 | 2.0 | 0.00 | 1.04 | 1.04 | 75 | 1014.6 |
| 20260903215654 | 87 | 266 | 3.0 | 5.0 | 0.00 | 1.04 | 1.04 | 75 | 1014.6 |
| 20260903215150 | 87 | 290 | 2.0 | 3.0 | 0.00 | 1.04 | 1.04 | 75 | 1014.6 |
| 20260903214648 | 86 | 221 | 1.0 | 1.0 | 0.00 | 1.04 | 1.04 | 76 | 1014.2 |
| 20260903214144 | 87 | 240 | 3.0 | 5.0 | 0.00 | 1.04 | 1.04 | 74 | 1014.2 |
| 20260903213639 | 87 | 251 | 1.0 | 2.0 | 0.00 | 1.04 | 1.04 | 75 | 1014.2 |
| 20260903213135 | 86 | 278 | 3.0 | 3.0 | 0.00 | 1.04 | 1.04 | 74 | 1014.0 |
| 20260903212631 | 87 | 223 | 0.0 | 1.0 | 0.00 | 1.04 | 1.04 | 75 | 1014.1 |
| 20260903212126 | 88 | 285 | 4.0 | 5.0 | 0.00 | 1.04 | 1.04 | 72 | 1014.0 |
| 20260903211625 | 87 | 249 | 0.0 | 1.0 | 0.00 | 1.04 | 1.04 | 74 | 1013.9 |
| 20260903211123 | 86 | 260 | 1.0 | 1.0 | 0.00 | 1.04 | 1.04 | 75 | 1013.8 |
| 20260903210618 | 87 | 244 | 1.0 | 2.0 | 0.00 | 1.04 | 1.04 | 75 | 1014.0 |
| 20260903210114 | 87 | 278 | 2.0 | 2.0 | 0.00 | 1.04 | 1.04 | 74 | 1013.9 |
| 20260903205613 | 87 | 250 | 3.0 | 3.0 | 0.00 | 1.04 | 1.04 | 74 | 1014.3 |
| 20260903205112 | 88 | 236 | 3.0 | 3.0 | 0.00 | 1.04 | 1.04 | 74 | 1014.1 |
| 20260903204609 | 88 | 216 | 1.0 | 1.0 | 0.00 | 1.04 | 1.04 | 72 | 1014.4 |
| 20260903204104 | 89 | 314 | 4.0 | 6.0 | 0.00 | 1.04 | 1.04 | 71 | 1014.3 |
| 20260903203600 | 89 | 267 | 3.0 | 5.0 | 0.00 | 1.04 | 1.04 | 74 | 1014.3 |
| 20260903203059 | 88 | 296 | 2.0 | 2.0 | 0.00 | 1.04 | 1.04 | 71 | 1014.3 |
| 20260903202556 | 88 | 257 | 2.0 | 3.0 | 0.00 | 1.04 | 1.04 | 72 | 1014.3 |
| 20260903202051 | 88 | 291 | 3.0 | 3.0 | 0.00 | 1.04 | 1.04 | 72 | 1014.7 |
| 20260903201551 | 87 | 257 | 3.0 | 3.0 | 0.00 | 1.04 | 1.04 | 74 | 1014.6 |
| 20260903201050 | 87 | 250 | 6.0 | 7.0 | 0.00 | 1.04 | 1.04 | 73 | 1014.5 |
| 20260903200546 | 87 | 293 | 3.0 | 5.0 | 0.00 | 1.04 | 1.04 | 74 | 1014.6 |
| 20260903200040 | 86 | 255 | 4.0 | 6.0 | 0.00 | 1.04 | 1.04 | 75 | 1014.6 |
| 20260903195536 | 86 | 293 | 4.0 | 5.0 | 0.00 | 1.04 | 1.04 | 75 | 1014.6 |
| 20260903195032 | 86 | 272 | 2.0 | 3.0 | 0.00 | 1.04 | 1.04 | 74 | 1014.6 |
| 20260903194527 | 86 | 270 | 3.0 | 5.0 | 0.00 | 1.04 | 1.04 | 74 | 1014.7 |
| 20260903194022 | 86 | 308 | 2.0 | 3.0 | 0.00 | 1.04 | 1.04 | 75 | 1014.9 |
| 20260903193519 | 86 | 298 | 4.0 | 5.0 | 0.00 | 1.04 | 1.04 | 74 | 1014.8 |
| 20260903193014 | 86 | 208 | 2.0 | 2.0 | 0.00 | 1.04 | 1.04 | 74 | 1014.7 |
| 20260903192510 | 87 | 239 | 1.0 | 2.0 | 0.00 | 1.04 | 1.04 | 74 | 1014.9 |
| 20260903192004 | 86 | 223 | 4.0 | 5.0 | 0.00 | 1.04 | 1.04 | 75 | 1014.9 |
| 20260903191500 | 87 | 273 | 4.0 | 6.0 | 0.00 | 1.04 | 1.04 | 74 | 1015.1 |
| 20260903190955 | 87 | 273 | 2.0 | 2.0 | 0.00 | 1.04 | 1.04 | 75 | 1015.1 |
| 20260903190454 | 87 | 227 | 1.0 | 1.0 | 0.00 | 1.04 | 1.04 | 74 | 1015.3 |
| 20260903185948 | 87 | 218 | 5.0 | 6.0 | 0.00 | 1.04 | 1.04 | 74 | 1015.3 |
| 20260903185445 | 86 | 295 | 3.0 | 5.0 | 0.00 | 1.04 | 1.04 | 75 | 1015.3 |
| 20260903184944 | 87 | 295 | 3.0 | 5.0 | 0.00 | 1.04 | 1.04 | 74 | 1015.4 |
| 20260903184442 | 86 | 283 | 5.0 | 7.0 | 0.00 | 1.04 | 1.04 | 76 | 1015.3 |
| 20260903183936 | 86 | 246 | 4.0 | 5.0 | 0.00 | 1.04 | 1.04 | 76 | 1015.5 |
| 20260903183430 | 86 | 279 | 4.0 | 7.0 | 0.00 | 1.04 | 1.04 | 75 | 1015.4 |
| 20260903182930 | 85 | 230 | 3.0 | 5.0 | 0.00 | 1.04 | 1.04 | 77 | 1015.5 |
| 20260903182428 | 85 | 246 | 5.0 | 7.0 | 0.00 | 1.04 | 1.04 | 76 | 1015.4 |
| 20260903181924 | 85 | 307 | 5.0 | 6.0 | 0.00 | 1.04 | 1.04 | 77 | 1015.5 |
| 20260903181418 | 85 | 321 | 9.0 | 10.0 | 0.00 | 1.04 | 1.04 | 77 | 1015.7 |
| 20260903180918 | 85 | 309 | 8.0 | 10.0 | 0.00 | 1.04 | 1.04 | 77 | 1015.7 |
| 20260903180413 | 85 | 216 | 4.0 | 6.0 | 0.00 | 1.04 | 1.04 | 78 | 1015.8 |
| 20260903175912 | 85 | 313 | 6.0 | 8.0 | 0.00 | 1.04 | 1.04 | 77 | 1015.9 |
| 20260903175407 | 85 | 238 | 3.0 | 3.0 | 0.00 | 1.04 | 1.04 | 78 | 1016.1 |
| 20260903174901 | 84 | 286 | 3.0 | 3.0 | 0.00 | 1.04 | 1.04 | 78 | 1015.7 |
| 20260903174356 | 84 | 249 | 4.0 | 5.0 | 0.00 | 1.04 | 1.04 | 78 | 1015.7 |
| 20260903173857 | 83 | 307 | 5.0 | 6.0 | 0.00 | 1.04 | 1.04 | 78 | 1016.0 |
| 20260903173352 | 84 | 259 | 6.0 | 8.0 | 0.00 | 1.04 | 1.04 | 78 | 1016.0 |
| 20260903172848 | 83 | 255 | 5.0 | 8.0 | 0.00 | 1.04 | 1.04 | 78 | 1016.0 |
| 20260903172342 | 84 | 275 | 8.0 | 9.0 | 0.00 | 1.04 | 1.04 | 78 | 1016.4 |
| 20260903171838 | 83 | 296 | 7.0 | 9.0 | 0.00 | 1.04 | 1.04 | 78 | 1016.2 |
| 20260903171333 | 84 | 290 | 8.0 | 10.0 | 0.00 | 1.04 | 1.04 | 79 | 1016.3 |
| 20260903170832 | 84 | 268 | 3.0 | 5.0 | 0.00 | 1.04 | 1.04 | 79 | 1016.1 |
| 20260903170328 | 83 | 286 | 2.0 | 3.0 | 0.00 | 1.04 | 1.04 | 80 | 1016.4 |
| 20260903165826 | 82 | 231 | 3.0 | 3.0 | 0.00 | 1.04 | 1.04 | 80 | 1016.4 |
| 20260903165325 | 82 | 328 | 7.0 | 7.0 | 0.00 | 1.04 | 1.04 | 79 | 1016.7 |
| 20260903164820 | 82 | 261 | 3.0 | 5.0 | 0.00 | 1.04 | 1.04 | 81 | 1016.9 |
| 20260903164316 | 82 | 40 | 3.0 | 5.0 | 0.00 | 1.04 | 1.04 | 80 | 1016.9 |
| 20260903163815 | 82 | 266 | 6.0 | 8.0 | 0.00 | 1.04 | 1.04 | 80 | 1017.1 |
| 20260903163312 | 82 | 222 | 7.0 | 10.0 | 0.00 | 1.04 | 1.04 | 79 | 1016.9 |
| 20260903162807 | 82 | 228 | 4.0 | 5.0 | 0.00 | 1.04 | 1.04 | 81 | 1017.1 |
| 20260903162306 | 82 | 307 | 10.0 | 13.0 | 0.00 | 1.04 | 1.04 | 83 | 1016.9 |
| 20260903161759 | 81 | 302 | 5.0 | 7.0 | 0.00 | 1.04 | 1.04 | 85 | 1017.1 |
| 20260903161254 | 80 | 239 | 2.0 | 3.0 | 0.00 | 1.04 | 1.04 | 86 | 1017.2 |
| 20260903160749 | 80 | 190 | 1.0 | 2.0 | 0.00 | 1.04 | 1.04 | 88 | 1017.3 |
| 20260903160248 | 80 | 222 | 3.0 | 3.0 | 0.00 | 1.04 | 1.04 | 89 | 1017.3 |
| 20260903155747 | 80 | 258 | 5.0 | 6.0 | 0.00 | 1.04 | 1.04 | 88 | 1017.7 |
| 20260903155242 | 79 | 274 | 3.0 | 3.0 | 0.00 | 1.04 | 1.04 | 90 | 1017.7 |
| 20260903154738 | 79 | 259 | 5.0 | 7.0 | 0.00 | 1.04 | 1.04 | 91 | 1018.1 |
| 20260903154234 | 78 | 252 | 3.0 | 3.0 | 0.00 | 1.04 | 1.04 | 92 | 1018.1 |
| 20260903153729 | 78 | 247 | 4.0 | 5.0 | 0.00 | 1.04 | 1.04 | 92 | 1018.2 |
| 20260903153225 | 78 | 298 | 4.0 | 5.0 | 0.00 | 1.04 | 1.04 | 93 | 1018.1 |
| 20260903152721 | 78 | 299 | 3.0 | 3.0 | 0.00 | 1.04 | 1.04 | 94 | 1018.1 |
| 20260903152217 | 77 | 245 | 2.0 | 3.0 | 0.00 | 1.04 | 1.04 | 94 | 1018.3 |
| 20260903151716 | 77 | 314 | 6.0 | 9.0 | 0.00 | 1.04 | 1.04 | 94 | 1017.9 |
| 20260903151212 | 77 | 313 | 5.0 | 7.0 | 0.00 | 1.04 | 1.04 | 94 | 1017.9 |
| 20260903150707 | 78 | 316 | 5.0 | 7.0 | 0.00 | 1.04 | 1.04 | 93 | 1017.9 |
| 20260903150202 | 78 | 282 | 8.0 | 10.0 | 0.00 | 1.04 | 1.04 | 93 | 1017.8 |
| 20260903145701 | 77 | 229 | 5.0 | 6.0 | 0.00 | 1.04 | 1.04 | 94 | 1018.2 |
| 20260903145157 | 77 | 282 | 5.0 | 6.0 | 0.00 | 1.04 | 1.04 | 95 | 1018.1 |
| 20260903144656 | 77 | 219 | 2.0 | 2.0 | 0.00 | 1.04 | 1.04 | 95 | 1018.2 |
| 20260903144152 | 76 | 267 | 6.0 | 7.0 | 0.00 | 1.04 | 1.04 | 95 | 1018.6 |
| 20260903143648 | 76 | 273 | 3.0 | 6.0 | 0.00 | 1.04 | 1.04 | 95 | 1018.1 |
| 20260903143143 | 76 | 309 | 4.0 | 5.0 | 0.00 | 1.04 | 1.04 | 96 | 1018.3 |
| 20260903142639 | 76 | 291 | 4.0 | 6.0 | 0.00 | 1.04 | 1.04 | 95 | 1018.3 |
| 20260903142136 | 76 | 312 | 4.0 | 5.0 | 0.00 | 1.04 | 1.04 | 95 | 1017.9 |
| 20260903141630 | 76 | 169 | 1.0 | 1.0 | 0.00 | 1.04 | 1.04 | 96 | 1017.9 |
| 20260903141125 | 75 | 167 | 2.0 | 2.0 | 0.00 | 1.04 | 1.04 | 96 | 1018.0 |
| 20260903140622 | 75 | 246 | 3.0 | 3.0 | 0.00 | 1.04 | 1.04 | 97 | 1018.0 |
| 20260903140117 | 75 | 228 | 2.0 | 2.0 | 0.00 | 1.04 | 1.04 | 97 | 1018.0 |